Weather History for KMLE - March, 2014

Change the Weather History Date:

Friday, March 7, 2014

  Actual Average (KOMA) Record (KOMA)
Temperature  
Mean Temperature 34 °F 36 °F  
Max Temperature 42 °F 47 °F 76 °F (2000)
Min Temperature 27 °F 25 °F -6 °F (1943)
Degree Days  
Heating Degree Days 30 29  
Month to date heating degree days 214  
Since 1 July heating degree days 5012  
Cooling Degree Days 0 0  
Month to date cooling degree days 0  
Year to date cooling degree days 0  
Moisture  
Dew Point 27 °F    
Average Humidity 77    
Maximum Humidity 93    
Minimum Humidity 59    
Precipitation  
Precipitation 0.00 in 0.05 in 0.68 in (1990)
Month to date precipitation 0.34  
Year to date precipitation 1.91  
Snow  
Snow 0.00 in 0.20 in - ()
Month to date snowfall 1.2  
Since 1 July snowfall 22.4  
Snow Depth -    
Sea Level Pressure  
Sea Level Pressure 29.94 in    
Wind  
Wind Speed 6 mph (North)    
Max Wind Speed 16 mph    
Max Gust Speed 29 mph    
Visibility 8 miles    
Events      
T = Trace of Precipitation, MM = Missing Value Source: NWS Daily Summary

Daily Weather History Graph

Daily Weather History Graph

Search for Another Location

Airport or City:

Trip Planner

Search our weather history database for the weather conditions in past years. The results will help you decide how hot, cold, wet, or windy it might be!

Date:

Astronomy

Mar. 07, 2014 Rise Set
Actual Time 6:49 AM CST 6:22 PM CST
Civil Twilight 6:21 AM CST 6:49 PM CST
Nautical Twilight 5:49 AM CST 7:21 PM CST
Astronomical Twilight 5:17 AM CST 7:53 PM CST
Moon 10:39 AM CST (3/7) 12:31 AM CST (3/7)
Length of Visible Light 12h 28m
Length of Day
11h 33m
Waxing Crescent, 42% of the Moon is Illuminated
Mar 7
Waxing Crescent
Mar 8
First Quarter
Mar 16
Full
Mar 23
Last Quarter
Mar 30
New

Hourly Weather History & Observations

Time (CST) Temp. Windchill Dew Point Humidity Pressure Visibility Wind Dir Wind Speed Gust Speed Precip Events Conditions
12:15 AM 32.0 °F 28.7 °F 28.9 °F 88% 29.81 in 5.0 mi SE 3.5 mph - N/A   Clear
12:35 AM 32.0 °F 26.4 °F 28.4 °F 87% 29.81 in 5.0 mi SSE 5.8 mph - N/A   Clear
12:55 AM 32.0 °F 27.5 °F 29.1 °F 89% 29.80 in 5.0 mi SSE 4.6 mph - N/A   Clear
1:15 AM 32.0 °F 26.4 °F 28.8 °F 88% 29.80 in 5.0 mi SE 5.8 mph - N/A   Clear
1:30 AM 32.0 °F 27.5 °F 28.9 °F 88% 29.81 in 5.0 mi SE 4.6 mph - N/A   Clear
1:55 AM 31.1 °F 25.4 °F 27.9 °F 88% 29.80 in 5.0 mi SE 5.8 mph - N/A   Clear
2:15 AM 31.5 °F 24.9 °F 28.4 °F 88% 29.79 in 5.0 mi SE 6.9 mph - N/A   Clear
2:35 AM 31.8 °F 25.4 °F 28.8 °F 88% 29.78 in 5.0 mi SSE 6.9 mph - N/A   Clear
2:55 AM 32.2 °F 26.7 °F 29.3 °F 89% 29.78 in 5.0 mi SSE 5.8 mph - N/A   Clear
3:15 AM 32.0 °F 26.4 °F 29.1 °F 89% 29.78 in 5.0 mi SE 5.8 mph - N/A   Clear
3:35 AM 32.2 °F 28.9 °F 29.3 °F 89% 29.78 in 5.0 mi SSE 3.5 mph - N/A   Clear
3:55 AM 32.2 °F - 29.7 °F 90% 29.79 in 5.0 mi Calm Calm - N/A   Clear
4:15 AM 31.8 °F 25.4 °F 28.8 °F 88% 29.78 in 5.0 mi SSE 6.9 mph - N/A   Clear
4:35 AM 32.0 °F 26.4 °F 29.7 °F 91% 29.78 in 5.0 mi SE 5.8 mph - N/A   Clear
4:55 AM 32.0 °F 28.7 °F 29.7 °F 91% 29.78 in 5.0 mi SE 3.5 mph - N/A   Clear
5:15 AM 32.0 °F - 29.5 °F 90% 29.78 in 5.0 mi Calm Calm - N/A   Clear
5:35 AM 32.4 °F - 30.2 °F 92% 29.79 in 5.0 mi Calm Calm - N/A   Clear
5:55 AM 32.5 °F - 30.2 °F 91% 29.79 in 5.0 mi Calm Calm - N/A   Clear
6:10 AM 31.6 °F - 29.1 °F 90% 29.79 in 4.0 mi Calm Calm - N/A   Clear
6:35 AM 32.0 °F - 30.0 °F 92% 29.81 in 4.0 mi Calm Calm - N/A   Clear
6:55 AM 32.0 °F - 30.0 °F 92% 29.81 in 3.0 mi Calm Calm - N/A   Clear
7:15 AM 32.0 °F - 30.0 °F 92% 29.81 in 2.5 mi Calm Calm - N/A   Clear
7:35 AM 32.4 °F - 30.6 °F 93% 29.82 in 2.5 mi Calm Calm - N/A   Clear
7:55 AM 34.3 °F - 32.0 °F 91% 29.83 in 4.0 mi Calm Calm - N/A   Scattered Clouds
8:15 AM 37.9 °F - 34.2 °F 86% 29.83 in 5.0 mi Calm Calm - N/A   Scattered Clouds
8:35 AM 39.9 °F 36.7 °F 34.9 °F 82% 29.83 in 5.0 mi West 4.6 mph - N/A   Haze
8:55 AM 41.2 °F 36.0 °F 35.1 °F 79% 29.84 in 7.0 mi WNW 8.1 mph - N/A   Clear
9:15 AM 40.6 °F 36.7 °F 34.2 °F 78% 29.85 in 7.0 mi WNW 5.8 mph - N/A   Clear
9:35 AM 41.0 °F 39.0 °F 34.2 °F 77% 29.86 in 7.0 mi NNW 3.5 mph - N/A   Scattered Clouds
9:55 AM 41.4 °F 36.8 °F 34.2 °F 76% 29.87 in 10.0 mi NNW 6.9 mph - N/A   Overcast
10:15 AM 41.9 °F 36.3 °F 34.0 °F 73% 29.86 in 10.0 mi North 9.2 mph - N/A   Overcast
10:35 AM 42.1 °F 38.4 °F 33.4 °F 71% 29.88 in 10.0 mi North 5.8 mph 16.1 mph N/A   Mostly Cloudy
10:55 AM 41.7 °F 37.3 °F 32.9 °F 71% 29.89 in 7.0 mi North 6.9 mph - N/A   Overcast
11:15 AM 41.0 °F 35.8 °F 32.4 °F 71% 29.90 in 7.0 mi NNW 8.1 mph 19.6 mph N/A   Overcast
11:35 AM 40.1 °F 32.7 °F 32.0 °F 73% 29.91 in 7.0 mi NNW 12.7 mph 20.7 mph N/A   Overcast
11:55 AM 40.1 °F 35.3 °F 32.0 °F 73% 29.92 in 7.0 mi North 6.9 mph - N/A   Overcast
12:15 PM 39.6 °F 32.1 °F 31.8 °F 74% 29.93 in 5.0 mi North 12.7 mph 19.6 mph N/A   Haze
12:35 PM 39.2 °F 32.0 °F 31.6 °F 74% 29.93 in 5.0 mi North 11.5 mph 23.0 mph N/A   Haze
12:55 PM 39.4 °F 33.2 °F 31.3 °F 73% 29.94 in 7.0 mi North 9.2 mph 21.9 mph N/A   Overcast
1:15 PM 40.1 °F 33.2 °F 31.1 °F 70% 29.93 in 10.0 mi North 11.5 mph 20.7 mph N/A   Overcast
1:35 PM 39.2 °F 33.6 °F 30.2 °F 70% 29.93 in 10.0 mi North 8.1 mph 23.0 mph N/A   Overcast
1:55 PM 39.4 °F 31.4 °F 29.7 °F 68% 29.94 in 10.0 mi North 13.8 mph 23.0 mph N/A   Overcast
2:15 PM 39.0 °F 30.3 °F 28.9 °F 67% 29.94 in 10.0 mi North 16.1 mph 28.8 mph N/A   Overcast
2:35 PM 38.8 °F 34.6 °F 27.3 °F 63% 29.94 in 10.0 mi NNE 5.8 mph 20.7 mph N/A   Mostly Cloudy
2:55 PM 37.9 °F 30.5 °F 26.8 °F 64% 29.96 in 10.0 mi North 11.5 mph 18.4 mph N/A   Mostly Cloudy
3:15 PM 38.1 °F 29.8 °F 25.7 °F 61% 29.97 in 10.0 mi North 13.8 mph 24.2 mph N/A   Overcast
3:35 PM 37.6 °F 30.0 °F 25.2 °F 61% 29.99 in 10.0 mi North 11.5 mph 19.6 mph N/A   Overcast
3:55 PM 36.0 °F 26.7 °F 23.9 °F 62% 29.99 in 10.0 mi NNW 15.0 mph 25.3 mph N/A   Overcast
4:15 PM 35.2 °F 26.2 °F 23.2 °F 62% 30.00 in 10.0 mi North 13.8 mph 23.0 mph N/A   Scattered Clouds
4:35 PM 34.2 °F 24.0 °F 22.6 °F 63% 30.01 in 10.0 mi North 16.1 mph 23.0 mph N/A   Scattered Clouds
4:55 PM 33.1 °F 24.4 °F 21.9 °F 64% 30.02 in 10.0 mi North 11.5 mph 26.5 mph N/A   Scattered Clouds
5:15 PM 32.7 °F 23.9 °F 21.6 °F 64% 30.03 in 10.0 mi North 11.5 mph 20.7 mph N/A   Mostly Cloudy
5:35 PM 32.0 °F 24.2 °F 20.1 °F 62% 30.05 in 10.0 mi North 9.2 mph 23.0 mph N/A   Mostly Cloudy
5:55 PM 32.0 °F 24.2 °F 20.3 °F 62% 30.06 in 10.0 mi North 9.2 mph 21.9 mph N/A   Overcast
6:15 PM 31.6 °F 23.1 °F 18.9 °F 59% 30.07 in 10.0 mi North 10.4 mph 20.7 mph N/A   Overcast
6:35 PM 31.5 °F 25.8 °F 19.4 °F 61% 30.09 in 10.0 mi North 5.8 mph 19.6 mph N/A   Overcast
6:55 PM 31.1 °F 24.5 °F 19.4 °F 62% 30.11 in 10.0 mi NNW 6.9 mph - N/A   Overcast
7:15 PM 30.6 °F 21.8 °F 18.9 °F 62% 30.12 in 10.0 mi North 10.4 mph 17.3 mph N/A   Overcast
7:35 PM 30.2 °F 21.3 °F 19.2 °F 64% 30.13 in 10.0 mi North 10.4 mph 18.4 mph N/A   Overcast
7:55 PM 29.8 °F 19.8 °F 19.0 °F 64% 30.14 in 10.0 mi North 12.7 mph 19.6 mph N/A   Overcast
8:15 PM 28.8 °F 19.5 °F 19.9 °F 70% 30.14 in 10.0 mi North 10.4 mph 18.4 mph N/A   Overcast
8:35 PM 28.0 °F 20.0 °F 21.2 °F 76% 30.14 in 10.0 mi North 8.1 mph 18.4 mph N/A   Overcast
8:55 PM 27.9 °F 21.5 °F 21.2 °F 76% 30.15 in 10.0 mi North 5.8 mph - N/A   Overcast
9:15 PM 27.9 °F 19.8 °F 21.6 °F 77% 30.15 in 10.0 mi North 8.1 mph - N/A   Overcast
9:35 PM 27.9 °F 19.1 °F 21.9 °F 78% 30.15 in 10.0 mi North 9.2 mph - N/A   Overcast
9:55 PM 27.5 °F 18.6 °F 22.1 °F 80% 30.15 in 10.0 mi North 9.2 mph 17.3 mph N/A   Overcast
10:15 PM 27.5 °F 18.6 °F 21.9 °F 80% 30.16 in 10.0 mi North 9.2 mph 16.1 mph N/A   Overcast
10:35 PM 27.5 °F 23.6 °F 20.8 °F 76% 30.16 in 10.0 mi North 3.5 mph 16.1 mph N/A   Overcast
10:55 PM 27.7 °F 17.1 °F 19.4 °F 71% 30.17 in 10.0 mi North 12.7 mph 20.7 mph N/A   Overcast
11:15 PM 27.5 °F 18.0 °F 19.0 °F 71% 30.18 in 10.0 mi North 10.4 mph - N/A   Overcast
11:35 PM 27.5 °F 21.1 °F 19.0 °F 71% 30.18 in 10.0 mi North 5.8 mph - N/A   Overcast
11:55 PM 27.5 °F 18.6 °F 19.4 °F 72% 30.19 in 10.0 mi North 9.2 mph 16.1 mph N/A   Overcast